Starlink 33859

operational
NORAD ID: 63640 Int'l Des: 2025-083 Owner: SPXS Country: US Constellation: starlink
LEOCIRCULAR

Starlink 33859について

説明を読み込み中...

リアルタイム位置

3D地球を読み込み中...

次回通過

高度履歴

Altitude vs Time

uPlot chart will show altitude changes over time

軌道要素

1 63640U 25083G 25306.45545262 .00022079 00000-0 80926-3 0 9994
2 63640 42.9992 4.1480 0000739 244.7237 115.3538 15.27588680 30606
Epoch: Nov 2, 2025 • Age: 12 hours

現在のステータス

高度 495.8 km
速度 7.62 km/s
衛星直下点 -43.07°S, 121.82°W
打ち上げ日 Apr 25, 2025
運用期間 0.5 years
タイプ internet

技術仕様

分類 Payload
質量 575.00 kg
乾燥質量 530.00 kg
総質量 575.00 kg
長さ 0.30 m
直径 4.10 m
スパン 29.00 m
形状 Box + pan
製造者 SPXS
バスタイプ Starlink V2MO
フェーズステータス In Orbit
所有者/国 SPXS/US

大規模コンステレーション

Loading constellations...